Tracking 31027 objects as of 19-Jul-2025
HD Live streaming from Space Station
objects crossing your sky now

RADUGA 1-7

Track RADUGA 1-7 now!
RADUGA 1-7 is classified as:


NORAD ID: 28194
Int'l Code: 2004-010A
Perigee: 35,784.3 km
Apogee: 35,820.0 km
Inclination: 13.3 °
Period: 1,436.5 minutes
Semi major axis: 42173 km
RCS: 12.5893 m2 (large)
Launch date: March 27, 2004
Source: Commonwealth of Independent States (former USSR) (CIS)
Launch site: TYURATAM MISSILE AND SPACE COMPLEX (TTMTR)

Military communication.
Your satellite tracking list
COSMOS 1743
Track 1 satellite(s)




NASA's NSSDC Master Catalog

Two Line Element Set (TLE):
1 28194U 04010A   25199.59541030 -.00000367  00000-0  00000-0 0  9999
2 28194  13.2884  23.3846 0004230 209.9075  44.1940  1.00241855 78079
Source of the keplerian elements: AFSPC